Weather in Somosomo

Fiji     16°46′14″S   179°58′14″W
temp.,
°C
wind,
m/s
gust,
m/s
humid.,
%
clouds,
%
prec.,
mm/h
press.,
hPa
HPBL,
m
29 november, mon
mon2901:00+28ese567787 2.6 1012779
04:00+27ese4578100 1.1 1010663
07:00+27ese4580100 5.0 1012392
10:00+27ese668056 3.6 1012652
13:00+28e567952 7.3 1011712
16:00+27ese5680100 5.3 1009428
19:00+27ese8881100 12.3 1010643
22:00+27e8980100 6.4 1011806
30 november, tue
tue3001:00+27e7780100 10.1 1011686
04:00+27ese7881100 7.0 1009640
07:00+27ese9978100 14.8 1010895
10:00+27ese887576 2.6 1012934
13:00+27ese997348 4.2 1010999
16:00+27ese997057 0.6 10091094
19:00+27ese886993 0.6 10101165
22:00+27ese8867100 0.0 10121327
1 december, wed
wed101:00+27ese7765100 0.0 10101249
04:00+27ese766471 0.0 10091372
07:00+27ese776493 0.0 10101402
10:00+27ese666288 0.0 10111376
13:00+28ese766278 0.0 10101332
16:00+27se66645 0.0 10091210
19:00+27ese67655 0.0 10101014
22:00+27ese676897 0.0 10111096
2 december, thu
thu201:00+27ese667097 0.1 10101100
04:00+27ese666779 0.1 10081269
07:00+27ese666995 0.1 10091072
10:00+27ese456793 0.0 10101134
13:00+27se446865 0.0 1009994
16:00+27sse4469100 0.0 1007916
19:00+27se347191 0.1 1008788
22:00+27ese5568100 0.0 1009792
3 december, fri
fri301:00+27ese5563100 0.0 1008882
04:00+27ese4462100 0.0 1007874
07:00+27ese3477100 0.0 1008718
10:00+27ese4575100 0.4 1009790
13:00+28ese5573100 1.1 1007842
16:00+28ese5574100 2.2 1006845
19:00+28ese5574100 4.0 1006855
22:00+28e557590 0.8 1008847